2025-154D

Last updated on Wed Aug 20 2025 00:02:05 GMT+0000 (Coordinated Universal Time)

1 64872U 25154D 25231.15238945 .00003445 00000+0 34388-3 0 9998 2 64872 97.7068 296.6843 0005651 159.8282 200.3162 14.92157386 3920
UTC large
Height (km)
Speed (km/s)
/
Latitude / Longitude
Inclination (degrees)
Orbital Period (minutes)
Azimuth
Elevation
Range (km)
Doppler Factor

Next 0 passes for location: London (51.5072 / 0.1276)

Sorry there are no passes over London.